Погода в Трудовом

Россия / Приморский край     43°18′01″N   132°03′47″E
В апреле 2022 года жителям России запретили посещать сайт meteo.paraplan.net по решению Генеральной прокуратуры. Аудитория сайта уменьшилась в 10 раз. Владельцы сайта не видят смысла в поддержке погодного сервера в таких условиях. Сайт будет закрыт в октябре.
темп.,
°C
ветер,
м/с
пор.,
м/с
влажн.,
%
обл.,
%
осадки,
мм/ч
давл.,
гПа
погр.,
м
30 сентября, пт
пт3001:00+16ю48935 0.0 1013241
04:00+15ю35943 0.0 1013148
07:00+15ююв23945 0.0 101385
10:00+17ю34845 0.0 1014244
13:00+19ю45755 0.0 1013318
16:00+20ю45712 0.0 1011253
19:00+16ю479125 0.0 1011160
22:00+16ююв599512 0.0 1012280
1 октября, сб
сб101:00+16ююв599464 0.0 1012258
04:00+15юв34935 0.0 101378
07:00+15ююв11935 0.1 101419
10:00+18ю11835 0.2 1015153
13:00+20с137376 0.0 1015523
16:00+19с697566 0.0 1016404
19:00+16ссз597852 0.0 1019304
22:00+14ссз46810 0.0 1021166
2 октября, вс
вс201:00+13с34820 0.0 1021127
04:00+12ссв2282100 0.0 1022100
07:00+12з1182100 0.0 102262
10:00+16ююз3483100 0.0 1022341
13:00+16ю5874100 0.0 1022429
16:00+16ю61176100 0.0 1021502
19:00+15ю61280100 0.0 1020491
22:00+15ююв6138377 0.0 1020499
3 октября, пн
пн301:00+15ююв5108739 0.0 1019344
04:00+15юв498963 0.0 1018325
07:00+15ююв6118994 0.0 1017466
10:00+16ююв7138798 0.1 1016458
13:00+18ю81380100 0.0 1014788
16:00+16ююв81489100 0.5 1011656
19:00+16ююв71495100 3.4 1010591
22:00+16ююв3697100 5.6 1009227
4 октября, вт
вт401:00+15с2299100 3.4 100698
04:00+9с131891100 7.9 1008871
07:00+7с111888100 2.1 10111157
10:00+6с1117784 2.3 10121256
13:00+10с1014485 0.0 10121740
16:00+11ссз1015427 0.0 10122432
19:00+8ссз1116420 0.0 10151848
22:00+6ссз816440 0.0 10181809